DECAYED

STARLINK-30543, 57996 (Decayed)

Orbit data source: Space-Track

STARLINK-30543, 57996 was a payload satellite owned by SpaceX/Seattle (US) in LEO that was launched on Thu, 05 Oct 2023 UTC via an FALCON 9 launch vehicle from the Air Force Eastern Test Range (AFETR). Payload-class satellites include a variety of spacecraft equipped with specific instruments for various scientific and technological missions. These include communications satellites like Starlink; space stations such as the ISS; scientific satellites like the Hubble; Earth observation satellites from companies like Planet Labs, Umbra, and HawkEye 360; GPS; miniature CubeSats for education and research; and military/defense satellites.

Not visible in the next 10 days
Identifier
57996, 2023-153F
Orbit
Decayed
Country
Flag of USUS
Related business
Manufacturer
SpaceX/Seattle
Mission
Decayed Commercial Communications
Bus & Motor
STARLINK V2M, Unknown motor
Mass
730 kg wet, ~700 kg dry
Launch date (UTC)
2023-10-05 (3 years ago)
Launch vehicle
FALCON 9
Launch site
Air Force Eastern Test Range (AFETR)
Object type
Payload
Rocket body
Debris
Shape & HBR
Box + 2 Pan, 17.7 m
Radar Cross Section
33.884 m², Large (>1 m²)

Expand to show TLE details & history
Last TLE update: 1 year ago

TLE from 1 year ago
0 STARLINK-30543
1 57996U 23153F   25110.53637685  .28770667  90180-5  73402-2 0  9996
2 57996  42.9808 143.2871 0003913 133.7499 356.0268 16.27830248 89049
Epoch: 2025-04-20T12:52Z
TLE epoch observation values (Epoch: 2025-04-20T12:52:22.959Z)
Latitude
31.72461°
Longitude
-119.94064°
Altitude
196.623 km
Speed
7.795 km/s
True Right ascension
18h 48m 04s
True Declination
31° 33' 28"
Sunlit
Object was in daylight at epoch
Visualization orbit readout
Latitude
Unknown
Longitude
Unknown
Altitude
Unknown
Speed
Unknown
Apparent Right ascension
Unknown
Apparent Declination
Unknown
Sunlit
N/A
Visualization observer readout
Local Sidereal Time
21:31:13
Azimuth
Unknown
Elevation
Unknown
Doppler factor
Unknown
Orbital elements
Apogee altitude
202.984 km
Perigee altitude
197.835 km
Semi-major axis
6,578.547 km
Eccentricity
0.00039
Inclination
42.9808°
RAAN
143.2871°
Arg. of periapsis
133.7499°
True anomaly
356.02369°
Mean anomaly
356.0268°
Eccentric anomaly
356.02525°
Mean motion
4.06769 °/min
Orbital period
88.5 mins
BSTAR
0.0073402
Loading maneuver chart data...
Computing Atmospheric mass density...
Loading historical data...
Loading historical data...
Loading historical data...
Loading historical data...
Loading historical data...
Loading historical data...
Loading historical data...

Documentation

Showing up to 5 results
|